CEB212 RPLL-RPVM

Flight info

Callsign CEB212
Flight time 1h 0m
Altitude 25000
Route IPATA2V IPATA W25 BATAY BATAY3P
Aircraft A20N/M-SDE2E3FGHIRWXY/LB1

Departure

Time 2026-05-06 19:24
Airport Ninoy Aquino International Airport (RPLL)

Arrival

Time 2026-05-06 20:25
Airport Mactan Cebu International Airport (RPVM)
Time Latitude Longitude Altitude Speed Heading
2026-05-06 19:07 14.52240 121.00948 72 ft 0 kts 45°
2026-05-06 19:17 14.52232 121.00939 62 ft 2 kts 45°
2026-05-06 19:18 14.52220 121.00927 62 ft 2 kts 45°
2026-05-06 19:18 14.52208 121.00916 62 ft 2 kts 44°
2026-05-06 19:18 14.52196 121.00904 64 ft 2 kts 43°
2026-05-06 19:18 14.52184 121.00892 65 ft 2 kts 41°
2026-05-06 19:19 14.52172 121.00882 67 ft 2 kts 37°
2026-05-06 19:19 14.52158 121.00873 63 ft 2 kts
2026-05-06 19:19 14.52149 121.00876 65 ft 0 kts 310°
2026-05-06 19:21 14.52155 121.00868 62 ft 5 kts 310°
2026-05-06 19:21 14.52183 121.00840 72 ft 7 kts 315°
2026-05-06 19:21 14.52228 121.00793 72 ft 13 kts 315°
2026-05-06 19:21 14.52295 121.00724 71 ft 14 kts 315°
2026-05-06 19:22 14.52363 121.00655 65 ft 13 kts 314°
2026-05-06 19:22 14.52426 121.00589 65 ft 13 kts 314°
2026-05-06 19:22 14.52485 121.00528 67 ft 11 kts 308°
2026-05-06 19:22 14.52462 121.00468 69 ft 9 kts 226°
2026-05-06 19:23 14.52419 121.00422 70 ft 9 kts 226°
2026-05-06 19:23 14.52372 121.00396 63 ft 7 kts 159°
2026-05-06 19:23 14.52335 121.00430 67 ft 7 kts 135°
2026-05-06 19:23 14.52302 121.00465 65 ft 8 kts 135°
2026-05-06 19:24 14.52156 121.00616 68 ft 60 kts 134°
2026-05-06 19:24 14.51714 121.01074 69 ft 120 kts 135°
2026-05-06 19:24 14.51016 121.01798 204 ft 154 kts 135°
2026-05-06 19:24 14.50254 121.02567 763 ft 153 kts 134°
2026-05-06 19:25 14.49491 121.03362 1255 ft 162 kts 134°
2026-05-06 19:25 14.48625 121.04263 1568 ft 191 kts 134°
2026-05-06 19:25 14.47623 121.05304 1847 ft 215 kts 134°
2026-05-06 19:25 14.46486 121.06484 2059 ft 247 kts 134°
2026-05-06 19:26 14.45228 121.07785 2584 ft 261 kts 134°
2026-05-06 19:26 14.43960 121.09096 3381 ft 261 kts 132°
2026-05-06 19:26 14.42803 121.10546 4166 ft 263 kts 123°
2026-05-06 19:26 14.41777 121.12133 4835 ft 268 kts 121°
2026-05-06 19:27 14.40765 121.13770 5542 ft 271 kts 121°
2026-05-06 19:27 14.39750 121.15417 6291 ft 273 kts 121°
2026-05-06 19:27 14.38733 121.17062 7055 ft 272 kts 121°
2026-05-06 19:27 14.37707 121.18718 7760 ft 275 kts 121°
2026-05-06 19:28 14.36671 121.20388 8444 ft 279 kts 121°
2026-05-06 19:28 14.35621 121.22079 9177 ft 280 kts 121°
2026-05-06 19:28 14.34561 121.23784 9840 ft 284 kts 121°
2026-05-06 19:28 14.33492 121.25502 10304 ft 294 kts 121°
2026-05-06 19:29 14.32350 121.27335 10543 ft 313 kts 121°
2026-05-06 19:29 14.31144 121.29275 10759 ft 330 kts 121°
2026-05-06 19:29 14.29876 121.31314 11043 ft 343 kts 121°
2026-05-06 19:29 14.28570 121.33410 11478 ft 349 kts 122°
2026-05-06 19:30 14.27248 121.35531 11983 ft 354 kts 122°
2026-05-06 19:30 14.25908 121.37680 12497 ft 357 kts 122°
2026-05-06 19:30 14.24558 121.39844 13011 ft 360 kts 122°
2026-05-06 19:30 14.23214 121.41997 13523 ft 364 kts 122°
2026-05-06 19:31 14.21836 121.44202 14000 ft 367 kts 122°
2026-05-06 19:31 14.20444 121.46431 14461 ft 370 kts 122°
2026-05-06 19:31 14.17629 121.50936 15422 ft 376 kts 122°
2026-05-06 19:32 14.16207 121.53210 15894 ft 379 kts 122°
2026-05-06 19:32 14.14773 121.55503 16443 ft 379 kts 122°
2026-05-06 19:32 14.13359 121.57762 16924 ft 382 kts 121°
2026-05-06 19:32 14.11913 121.60073 17370 ft 386 kts 121°
2026-05-06 19:33 14.10412 121.62388 17764 ft 391 kts 126°
2026-05-06 19:33 14.08560 121.64485 18136 ft 397 kts 137°
2026-05-06 19:33 14.06397 121.66272 18546 ft 400 kts 142°
2026-05-06 19:33 14.04149 121.67990 18935 ft 402 kts 142°
2026-05-06 19:34 14.01892 121.69697 19324 ft 404 kts 142°
2026-05-06 19:34 13.99651 121.71395 19682 ft 405 kts 142°
2026-05-06 19:34 13.97379 121.73119 20053 ft 407 kts 142°
2026-05-06 19:34 13.95093 121.74858 20364 ft 410 kts 142°
2026-05-06 19:35 13.92792 121.76610 20702 ft 412 kts 142°
2026-05-06 19:35 13.90480 121.78371 21083 ft 414 kts 142°
2026-05-06 19:35 13.88154 121.80142 21450 ft 416 kts 142°
2026-05-06 19:35 13.85849 121.81894 21814 ft 418 kts 142°
2026-05-06 19:36 13.83497 121.83677 22160 ft 421 kts 142°
2026-05-06 19:36 13.81129 121.85465 22555 ft 423 kts 143°
2026-05-06 19:36 13.78744 121.87263 22901 ft 426 kts 142°
2026-05-06 19:36 13.76341 121.89074 23284 ft 428 kts 142°
2026-05-06 19:37 13.73926 121.90894 23629 ft 430 kts 143°
2026-05-06 19:37 13.71528 121.92702 23929 ft 433 kts 143°
2026-05-06 19:37 13.69090 121.94539 24246 ft 435 kts 142°
2026-05-06 19:37 13.67464 121.95765 24458 ft 437 kts 143°
2026-05-06 19:38 13.64166 121.98250 24808 ft 440 kts 142°
2026-05-06 19:38 13.61692 122.00114 24866 ft 440 kts 143°
2026-05-06 19:38 13.59247 122.01955 24868 ft 441 kts 143°
2026-05-06 19:38 13.56771 122.03819 24867 ft 441 kts 142°
2026-05-06 19:39 13.54287 122.05689 24867 ft 441 kts 142°
2026-05-06 19:39 13.51813 122.07551 24866 ft 441 kts 142°
2026-05-06 19:39 13.49335 122.09418 24867 ft 441 kts 143°
2026-05-06 19:39 13.46862 122.11278 24867 ft 441 kts 143°
2026-05-06 19:40 13.44415 122.13118 24862 ft 441 kts 143°
2026-05-06 19:40 13.41933 122.14984 24862 ft 441 kts 142°
2026-05-06 19:40 13.39458 122.16843 24861 ft 441 kts 143°
2026-05-06 19:40 13.36976 122.18707 24862 ft 441 kts 142°
2026-05-06 19:41 13.34500 122.20568 24862 ft 441 kts 142°
2026-05-06 19:41 13.32025 122.22428 24864 ft 441 kts 142°
2026-05-06 19:41 13.29549 122.24288 24862 ft 440 kts 142°
2026-05-06 19:41 13.27068 122.26153 24862 ft 440 kts 143°
2026-05-06 19:42 13.24625 122.27988 24863 ft 440 kts 142°
2026-05-06 19:42 13.22141 122.29850 24861 ft 440 kts 142°
2026-05-06 19:42 13.19673 122.31703 24862 ft 440 kts 142°
2026-05-06 19:42 13.17191 122.33564 24859 ft 440 kts 142°
2026-05-06 19:43 13.15553 122.34791 24857 ft 440 kts 143°
2026-05-06 19:43 13.13075 122.36649 24859 ft 440 kts 142°
2026-05-06 19:43 13.10594 122.38506 24859 ft 441 kts 143°
2026-05-06 19:43 13.07306 122.40968 24854 ft 441 kts 142°
2026-05-06 19:44 13.05636 122.42219 24856 ft 441 kts 142°
2026-05-06 19:44 13.02346 122.44685 24854 ft 441 kts 142°
2026-05-06 19:44 13.00701 122.45918 24853 ft 441 kts 142°
2026-05-06 19:44 12.98230 122.47768 24854 ft 441 kts 142°
2026-05-06 19:45 12.95750 122.49625 24852 ft 441 kts 142°
2026-05-06 19:45 12.93275 122.51477 24853 ft 441 kts 143°
2026-05-06 19:45 12.89985 122.53938 24853 ft 441 kts 143°
2026-05-06 19:45 12.88340 122.55167 24854 ft 441 kts 142°
2026-05-06 19:46 12.85862 122.57017 24855 ft 441 kts 143°
2026-05-06 19:46 12.83378 122.58872 24854 ft 441 kts 142°
2026-05-06 19:46 12.80901 122.60721 24853 ft 441 kts 142°
2026-05-06 19:46 12.78421 122.62574 24853 ft 441 kts 143°
2026-05-06 19:47 12.75932 122.64434 24854 ft 441 kts 142°
2026-05-06 19:47 12.73449 122.66290 24854 ft 442 kts 143°
2026-05-06 19:47 12.70993 122.68124 24853 ft 442 kts 143°
2026-05-06 19:47 12.68503 122.69982 24854 ft 442 kts 142°
2026-05-06 19:48 12.66009 122.71842 24853 ft 442 kts 142°
2026-05-06 19:48 12.63520 122.73698 24854 ft 442 kts 142°
2026-05-06 19:48 12.61034 122.75552 24853 ft 442 kts 143°
2026-05-06 19:48 12.58545 122.77409 24853 ft 443 kts 143°
2026-05-06 19:49 12.56059 122.79261 24852 ft 443 kts 142°
2026-05-06 19:49 12.53596 122.81097 24853 ft 443 kts 143°
2026-05-06 19:49 12.51103 122.82954 24854 ft 443 kts 143°
2026-05-06 19:49 12.48613 122.84808 24853 ft 443 kts 143°
2026-05-06 19:50 12.46125 122.86661 24855 ft 443 kts 142°
2026-05-06 19:50 12.43629 122.88519 24854 ft 442 kts 143°
2026-05-06 19:50 12.41136 122.90375 24853 ft 442 kts 143°
2026-05-06 19:50 12.38642 122.92231 24853 ft 442 kts 142°
2026-05-06 19:51 12.36189 122.94055 24854 ft 442 kts 143°
2026-05-06 19:51 12.33705 122.95903 24854 ft 441 kts 143°
2026-05-06 19:51 12.31209 122.97759 24853 ft 441 kts 142°
2026-05-06 19:51 12.28730 122.99602 24853 ft 441 kts 143°
2026-05-06 19:52 12.26243 123.01450 24855 ft 441 kts 143°
2026-05-06 19:52 12.23764 123.03292 24854 ft 441 kts 143°
2026-05-06 19:52 12.21279 123.05137 24851 ft 441 kts 143°
2026-05-06 19:52 12.18788 123.06988 24851 ft 441 kts 143°
2026-05-06 19:53 12.16308 123.08829 24851 ft 441 kts 143°
2026-05-06 19:53 12.13820 123.10676 24850 ft 441 kts 143°
2026-05-06 19:53 12.11339 123.12517 24785 ft 438 kts 143°
2026-05-06 19:53 12.08882 123.14339 24394 ft 433 kts 142°
2026-05-06 19:54 12.06487 123.16115 24039 ft 427 kts 142°
2026-05-06 19:54 12.04091 123.17891 23614 ft 423 kts 142°
2026-05-06 19:54 12.01706 123.19660 23123 ft 420 kts 142°
2026-05-06 19:54 11.99345 123.21410 22614 ft 416 kts 142°
2026-05-06 19:55 11.97016 123.23136 22118 ft 413 kts 142°
2026-05-06 19:55 11.94727 123.24833 21627 ft 409 kts 142°
2026-05-06 19:55 11.92426 123.26538 21128 ft 405 kts 142°
2026-05-06 19:55 11.90154 123.28221 20653 ft 402 kts 142°
2026-05-06 19:56 11.87895 123.29894 20186 ft 398 kts 142°
2026-05-06 19:56 11.85664 123.31545 19714 ft 395 kts 142°
2026-05-06 19:56 11.83476 123.33165 19245 ft 392 kts 142°
2026-05-06 19:56 11.81279 123.34792 18787 ft 388 kts 142°
2026-05-06 19:57 11.79102 123.36402 18343 ft 385 kts 142°
2026-05-06 19:57 11.76939 123.38003 17842 ft 382 kts 142°
2026-05-06 19:57 11.74788 123.39593 17316 ft 379 kts 142°
2026-05-06 19:57 11.72658 123.41169 16805 ft 376 kts 142°
2026-05-06 19:58 11.70542 123.42733 16292 ft 373 kts 142°
2026-05-06 19:58 11.68442 123.44285 15796 ft 371 kts 142°
2026-05-06 19:58 11.66380 123.45809 15315 ft 368 kts 142°
2026-05-06 19:58 11.64317 123.47333 14837 ft 365 kts 141°
2026-05-06 19:59 11.62265 123.48849 14367 ft 362 kts 141°
2026-05-06 19:59 11.60228 123.50354 13904 ft 359 kts 141°
2026-05-06 19:59 11.58210 123.51844 13418 ft 356 kts 141°
2026-05-06 19:59 11.56233 123.53303 12899 ft 354 kts 141°
2026-05-06 20:00 11.54248 123.54769 12411 ft 351 kts 141°
2026-05-06 20:00 11.52277 123.56224 11915 ft 348 kts 141°
2026-05-06 20:00 11.50326 123.57664 11426 ft 345 kts 141°
2026-05-06 20:00 11.48385 123.59096 10946 ft 343 kts 141°
2026-05-06 20:01 11.46458 123.60518 10478 ft 340 kts 141°
2026-05-06 20:01 11.44546 123.61928 10116 ft 337 kts 141°
2026-05-06 20:01 11.42648 123.63329 9999 ft 336 kts 141°
2026-05-06 20:01 11.40750 123.64729 9988 ft 337 kts 141°
2026-05-06 20:02 11.38883 123.66106 9982 ft 330 kts 141°
2026-05-06 20:02 11.37046 123.67455 9991 ft 316 kts 141°
2026-05-06 20:02 11.35251 123.68779 9985 ft 329 kts 141°
2026-05-06 20:02 11.33390 123.70154 9980 ft 322 kts 141°
2026-05-06 20:03 11.31610 123.71463 9987 ft 318 kts 141°
2026-05-06 20:03 11.29778 123.72816 9978 ft 326 kts 141°
2026-05-06 20:03 11.27991 123.74130 9990 ft 309 kts 141°
2026-05-06 20:03 11.26201 123.75449 9989 ft 326 kts 141°
2026-05-06 20:04 11.24365 123.76805 9985 ft 318 kts 141°
2026-05-06 20:04 11.22593 123.78107 9994 ft 319 kts 141°
2026-05-06 20:04 11.20761 123.79458 9982 ft 324 kts 141°
2026-05-06 20:04 11.18977 123.80768 9992 ft 310 kts 141°
2026-05-06 20:05 11.17183 123.82034 9983 ft 328 kts 145°
2026-05-06 20:05 11.15159 123.83033 9989 ft 315 kts 157°
2026-05-06 20:05 11.13057 123.83557 9837 ft 308 kts 169°
2026-05-06 20:05 11.10938 123.83565 9605 ft 303 kts 183°
2026-05-06 20:06 11.08855 123.83210 9358 ft 305 kts 188°
2026-05-06 20:06 11.06790 123.82704 9109 ft 305 kts 192°
2026-05-06 20:06 11.04749 123.82124 8857 ft 304 kts 193°
2026-05-06 20:06 11.02722 123.81517 8618 ft 303 kts 193°
2026-05-06 20:07 11.00729 123.80919 8375 ft 302 kts 193°
2026-05-06 20:07 10.98716 123.80325 8132 ft 300 kts 193°
2026-05-06 20:07 10.96713 123.79747 7896 ft 299 kts 192°
2026-05-06 20:07 10.94713 123.79179 7665 ft 298 kts 192°
2026-05-06 20:08 10.92715 123.78618 7419 ft 297 kts 192°
2026-05-06 20:08 10.90724 123.78062 7184 ft 295 kts 192°
2026-05-06 20:08 10.88751 123.77513 6954 ft 294 kts 192°
2026-05-06 20:08 10.86772 123.76963 6724 ft 294 kts 192°
2026-05-06 20:09 10.84800 123.76415 6486 ft 293 kts 192°
2026-05-06 20:09 10.82838 123.75868 6261 ft 292 kts 192°
2026-05-06 20:09 10.80905 123.75330 6026 ft 291 kts 192°
2026-05-06 20:09 10.78953 123.74786 5786 ft 290 kts 193°
2026-05-06 20:10 10.77007 123.74243 5536 ft 288 kts 193°
2026-05-06 20:10 10.75076 123.73704 5297 ft 288 kts 193°
2026-05-06 20:10 10.73145 123.73166 5059 ft 287 kts 193°
2026-05-06 20:10 10.71223 123.72630 4879 ft 284 kts 193°
2026-05-06 20:11 10.69316 123.72098 4762 ft 284 kts 193°
2026-05-06 20:11 10.67410 123.71568 4647 ft 284 kts 193°
2026-05-06 20:11 10.65503 123.71037 4526 ft 284 kts 193°
2026-05-06 20:11 10.63622 123.70513 4400 ft 283 kts 193°
2026-05-06 20:12 10.61726 123.69985 4279 ft 282 kts 193°
2026-05-06 20:12 10.59831 123.69458 4161 ft 282 kts 193°
2026-05-06 20:12 10.57937 123.68930 4045 ft 281 kts 193°
2026-05-06 20:12 10.56054 123.68406 3992 ft 280 kts 193°
2026-05-06 20:13 10.54173 123.67882 4004 ft 282 kts 193°
2026-05-06 20:13 10.52282 123.67356 4004 ft 282 kts 193°
2026-05-06 20:13 10.50387 123.66828 3995 ft 281 kts 193°
2026-05-06 20:13 10.48539 123.66313 3990 ft 268 kts 193°
2026-05-06 20:14 10.46770 123.65818 3994 ft 260 kts 193°
2026-05-06 20:14 10.45047 123.65338 3997 ft 260 kts 193°
2026-05-06 20:14 10.43302 123.64854 4000 ft 261 kts 193°
2026-05-06 20:14 10.41546 123.64366 3996 ft 261 kts 193°
2026-05-06 20:15 10.39787 123.63878 3992 ft 262 kts 193°
2026-05-06 20:15 10.38032 123.63391 3990 ft 260 kts 193°
2026-05-06 20:15 10.36291 123.63061 3987 ft 248 kts 179°
2026-05-06 20:15 10.34619 123.63244 3989 ft 239 kts 159°
2026-05-06 20:16 10.33149 123.63980 3998 ft 235 kts 142°
2026-05-06 20:16 10.31856 123.64988 3982 ft 233 kts 135°
2026-05-06 20:16 10.30680 123.66102 3979 ft 234 kts 131°
2026-05-06 20:16 10.29541 123.67290 3984 ft 234 kts 130°
2026-05-06 20:17 10.28424 123.68490 3981 ft 233 kts 130°
2026-05-06 20:17 10.27307 123.69688 3987 ft 232 kts 130°
2026-05-06 20:17 10.26203 123.70855 3986 ft 232 kts 131°
2026-05-06 20:17 10.25076 123.72027 3989 ft 231 kts 131°
2026-05-06 20:18 10.23951 123.73185 4004 ft 229 kts 131°
2026-05-06 20:18 10.22831 123.74328 3994 ft 227 kts 131°
2026-05-06 20:18 10.21735 123.75438 3902 ft 218 kts 131°
2026-05-06 20:18 10.20672 123.76510 3599 ft 213 kts 131°
2026-05-06 20:19 10.19625 123.77570 3220 ft 212 kts 132°
2026-05-06 20:19 10.18583 123.78627 3018 ft 211 kts 132°
2026-05-06 20:19 10.17600 123.79742 2986 ft 211 kts 122°
2026-05-06 20:19 10.16940 123.81035 2990 ft 208 kts 105°
2026-05-06 20:20 10.16732 123.82468 2961 ft 205 kts 86°
2026-05-06 20:20 10.17041 123.83866 2591 ft 204 kts 64°
2026-05-06 20:20 10.17794 123.85033 2420 ft 190 kts 51°
2026-05-06 20:20 10.18652 123.86010 2397 ft 183 kts 45°
2026-05-06 20:21 10.19532 123.86882 2393 ft 166 kts 43°
2026-05-06 20:21 10.20341 123.87638 2402 ft 151 kts 43°
2026-05-06 20:21 10.21072 123.88320 2412 ft 136 kts 42°
2026-05-06 20:21 10.21750 123.88964 2392 ft 134 kts 43°
2026-05-06 20:22 10.22434 123.89614 2280 ft 135 kts 43°
2026-05-06 20:22 10.23119 123.90265 2095 ft 135 kts 43°
2026-05-06 20:22 10.23811 123.90910 1901 ft 135 kts 43°
2026-05-06 20:22 10.24473 123.91594 1683 ft 136 kts 46°
2026-05-06 20:23 10.25123 123.92291 1475 ft 137 kts 44°
2026-05-06 20:23 10.25806 123.92952 1220 ft 137 kts 44°
2026-05-06 20:23 10.26481 123.93635 975 ft 137 kts 45°
2026-05-06 20:23 10.27143 123.94330 732 ft 136 kts 44°
2026-05-06 20:24 10.27826 123.94997 575 ft 137 kts 42°
2026-05-06 20:24 10.28509 123.95684 417 ft 138 kts 44°
2026-05-06 20:24 10.29178 123.96379 229 ft 137 kts 41°
2026-05-06 20:24 10.29868 123.97059 89 ft 138 kts 40°
2026-05-06 20:25 10.30519 123.97716 40 ft 113 kts 42°
2026-05-06 20:25 10.30888 123.98074 37 ft 48 kts 44°
2026-05-06 20:25 10.31099 123.98268 40 ft 36 kts 32°
2026-05-06 20:25 10.31316 123.98346 40 ft 29 kts 358°
2026-05-06 20:26 10.31346 123.98341 38 ft 0 kts 346°
2026-05-06 20:26 10.31364 123.98336 40 ft 4 kts 341°
2026-05-06 20:26 10.31401 123.98308 40 ft 15 kts 315°
2026-05-06 20:26 10.31484 123.98223 39 ft 17 kts 314°
2026-05-06 20:27 10.31562 123.98135 40 ft 16 kts 298°
2026-05-06 20:27 10.31527 123.98061 40 ft 12 kts 223°
2026-05-06 20:27 10.31471 123.98014 40 ft 7 kts 186°
2026-05-06 20:27 10.31433 123.98036 40 ft 6 kts 140°
2026-05-06 20:28 10.31402 123.98065 38 ft 7 kts 137°
2026-05-06 20:28 10.31369 123.98097 40 ft 6 kts 135°
2026-05-06 20:28 10.31336 123.98097 40 ft 7 kts 214°
2026-05-06 20:28 10.31327 123.98060 40 ft 4 kts 311°
2026-05-06 20:29 10.31346 123.98042 40 ft 4 kts 315°
2026-05-06 20:29 10.31358 123.98030 40 ft 4 kts 315°
2026-05-06 20:29 10.31378 123.98010 40 ft 0 kts 315°